STARLINK-4523 (53389 NORAD) Tracking and Keplerian Element Data

This shows tracking and keplerian element data for the satellite.

Feedback or suggestion? Click here.




ElementValue
Catalog53389
NameSTARLINK-4523
Epoch Orbit1618
Epoch Day325.20660193
Epoch Year2022
RAAN131.2644
Inclination53.2171
Eccentricity0.0002589
Argument of Perigee49.2453
Mean Anonmoly310.8764
Mean Motion15.08841227
Decay Rate5.98E-06
L11 53389U 22097B 22325.20660193 .00000598 00000+0 55704-4 0 9995
L22 53389 53.2171 131.2644 0002589 49.2453 310.8764 15.08841227 16184



Live tracking and technical data element details for STARLINK-4523 (NORAD 53389). STARLINK-4523 can be tracked NOW for your location showing map with azimuth and elevation plus other details from your city location.







IsCatalogInMostPopularTable: catalog: 53389, numindb: 5
Update: records affected: 1



GetName: 53389 STARLINK-4523

Hit Count: updated at: Tue, 29 Nov 2022 01:40:34 GMT